Time,TemperatureF,DewpointF,PressureIn,WindDirection,WindDirectionDegrees,WindSpeedMPH,WindSpeedGustMPH,Humidity,HourlyPrecipIn,Conditions,Clouds,dailyrainin,SoftwareType,DateUTC
2013-01-04 00:00:00,77.3,73.8,29.78,WSW,243,0.0,1.0,89,0.00,SCT,,0.00,WeatherDisplay:10.37,2013-01-03 14:00:00,
2013-01-04 00:10:00,77.3,73.8,29.78,WSW,242,0.0,1.0,89,0.00,SCT,,0.00,WeatherDisplay:10.37,2013-01-03 14:10:00,
2013-01-04 00:15:00,77.3,73.8,29.78,WSW,237,0.0,2.0,89,0.00,SCT,,0.00,WeatherDisplay:10.37,2013-01-03 14:15:00,
2013-01-04 00:25:00,77.3,74.1,29.77,WSW,240,0.0,3.0,90,0.00,SCT,,0.00,WeatherDisplay:10.37,2013-01-03 14:25:00,
2013-01-04 00:30:00,77.3,74.1,29.77,West,262,1.0,2.0,90,0.00,BKN,,0.00,WeatherDisplay:10.37,2013-01-03 14:30:00,
2013-01-04 00:35:00,77.3,74.1,29.77,West,270,0.0,2.0,90,0.00,BKN,,0.00,WeatherDisplay:10.37,2013-01-03 14:35:00,
2013-01-04 00:45:00,77.2,73.7,29.77,West,270,0.0,2.0,89,0.00,BKN,,0.00,WeatherDisplay:10.37,2013-01-03 14:45:00,
2013-01-04 00:50:00,77.2,74.0,29.76,West,270,0.0,1.0,90,0.00,BKN,,0.00,WeatherDisplay:10.37,2013-01-03 14:50:00,
2013-01-04 00:55:00,77.2,74.0,29.76,West,270,0.0,0.0,90,0.00,BKN,,0.00,WeatherDisplay:10.37,2013-01-03 14:55:00,
2013-01-04 01:00:00,77.3,74.1,29.76,West,270,0.0,1.0,90,0.00,BKN,,0.00,WeatherDisplay:10.37,2013-01-03 15:00:00,
2013-01-04 01:05:00,77.3,74.1,29.76,West,267,1.0,3.0,90,0.00,SCT,,0.00,WeatherDisplay:10.37,2013-01-03 15:05:00,
2013-01-04 01:10:00,77.3,74.1,29.76,West,260,0.0,2.0,90,0.00,SCT,,0.00,WeatherDisplay:10.37,2013-01-03 15:10:00,
2013-01-04 01:15:00,77.2,74.0,29.75,WSW,257,0.0,1.0,90,0.00,SCT,,0.00,WeatherDisplay:10.37,2013-01-03 15:15:00,
2013-01-04 01:20:00,77.2,74.0,29.75,SW,218,0.0,5.0,90,0.00,SCT,,0.00,WeatherDisplay:10.37,2013-01-03 15:20:00,
2013-01-04 01:25:00,77.2,74.0,29.75,South,188,0.0,3.0,90,0.00,SCT,,0.00,WeatherDisplay:10.37,2013-01-03 15:25:00,
2013-01-04 01:30:00,77.2,74.0,29.75,WSW,245,0.0,1.0,90,0.00,BKN,,0.00,WeatherDisplay:10.37,2013-01-03 15:30:00,
2013-01-04 01:35:00,77.2,74.0,29.75,West,260,0.0,1.0,90,0.00,BKN,,0.00,WeatherDisplay:10.37,2013-01-03 15:35:00,
2013-01-04 01:40:00,77.1,74.0,29.75,WSW,249,0.0,3.0,90,0.00,BKN,,0.00,WeatherDisplay:10.37,2013-01-03 15:40:00,
2013-01-04 01:45:00,77.1,73.9,29.74,SSW,196,0.0,1.0,90,0.00,BKN,,0.00,WeatherDisplay:10.37,2013-01-03 15:45:00,
2013-01-04 01:50:00,77.1,73.9,29.74,South,186,0.0,2.0,90,0.00,BKN,,0.00,WeatherDisplay:10.37,2013-01-03 15:50:00,
2013-01-04 01:55:00,77.2,74.1,29.74,SW,224,0.0,1.0,90,0.00,BKN,,0.00,WeatherDisplay:10.37,2013-01-03 15:55:00,
2013-01-04 02:00:00,77.3,74.1,29.74,WSW,239,0.0,2.0,90,0.00,BKN,,0.00,WeatherDisplay:10.37,2013-01-03 16:00:00,
2013-01-04 02:10:00,77.4,74.2,29.74,WSW,242,0.0,3.0,90,0.01,RA,,0.01,WeatherDisplay:10.37,2013-01-03 16:10:00,
2013-01-04 02:15:00,77.3,74.2,29.73,SW,234,0.0,4.0,90,0.00,RA,,0.01,WeatherDisplay:10.37,2013-01-03 16:15:00,
2013-01-04 02:20:00,77.3,74.1,29.73,WSW,247,0.0,4.0,90,0.01,RA,,0.02,WeatherDisplay:10.37,2013-01-03 16:20:00,
2013-01-04 02:25:00,77.3,74.1,29.73,WSW,258,0.0,1.0,90,0.00,RA,,0.02,WeatherDisplay:10.37,2013-01-03 16:25:00,
2013-01-04 02:30:00,77.3,74.1,29.73,WSW,257,0.0,0.0,90,0.00,RA,,0.02,WeatherDisplay:10.37,2013-01-03 16:30:00,
2013-01-04 02:40:00,77.1,74.0,29.73,WSW,253,0.0,1.0,90,0.01,RA,,0.02,WeatherDisplay:10.37,2013-01-03 16:40:00,
2013-01-04 02:45:00,77.1,73.9,29.73,WSW,253,1.0,2.0,90,0.00,RA,,0.02,WeatherDisplay:10.37,2013-01-03 16:45:00,
2013-01-04 02:50:00,76.9,73.7,29.73,WSW,255,0.0,3.0,90,0.00,RA,,0.02,WeatherDisplay:10.37,2013-01-03 16:50:00,
2013-01-04 02:55:00,76.8,73.6,29.73,WSW,255,0.0,1.0,90,0.00,RA,,0.02,WeatherDisplay:10.37,2013-01-03 16:55:00,
2013-01-04 03:00:00,76.7,73.6,29.73,WSW,254,0.0,1.0,90,0.00,RA,,0.02,WeatherDisplay:10.37,2013-01-03 17:00:00,
2013-01-04 03:10:00,76.7,73.8,29.73,WSW,245,0.0,2.0,91,0.00,RA,,0.02,WeatherDisplay:10.37,2013-01-03 17:10:00,
2013-01-04 03:15:00,76.6,73.8,29.73,WSW,242,0.0,2.0,91,0.01,RA,,0.03,WeatherDisplay:10.37,2013-01-03 17:15:00,
2013-01-04 03:20:00,76.5,73.6,29.73,WSW,246,1.0,3.0,91,0.00,RA,,0.03,WeatherDisplay:10.37,2013-01-03 17:20:00,
2013-01-04 03:25:00,76.2,73.0,29.73,WSW,249,0.0,2.0,90,0.00,RA,,0.03,WeatherDisplay:10.37,2013-01-03 17:25:00,
2013-01-04 03:30:00,75.9,72.7,29.73,WSW,244,0.0,4.0,90,0.01,RA,,0.04,WeatherDisplay:10.37,2013-01-03 17:30:00,
2013-01-04 03:35:00,75.6,72.8,29.72,WSW,246,1.0,4.0,91,0.00,RA,,0.04,WeatherDisplay:10.37,2013-01-03 17:35:00,
2013-01-04 03:40:00,75.4,72.6,29.73,WSW,238,0.0,3.0,91,0.00,RA,,0.04,WeatherDisplay:10.37,2013-01-03 17:40:00,
2013-01-04 03:45:00,75.3,72.5,29.73,SW,230,0.0,3.0,91,0.02,RA,,0.06,WeatherDisplay:10.37,2013-01-03 17:45:00,
2013-01-04 03:50:00,75.2,72.4,29.73,WSW,240,0.0,3.0,91,0.02,RA,,0.09,WeatherDisplay:10.37,2013-01-03 17:50:00,
2013-01-04 03:55:00,75.2,72.4,29.73,WSW,244,0.0,0.0,91,0.02,RA,,0.11,WeatherDisplay:10.37,2013-01-03 17:55:00,
2013-01-04 04:00:00,75.2,72.4,29.73,WSW,243,0.0,0.0,91,0.01,RA,,0.12,WeatherDisplay:10.37,2013-01-03 18:00:00,
2013-01-04 04:10:00,75.2,72.4,29.73,WSW,238,0.0,2.0,91,0.00,RA,,0.12,WeatherDisplay:10.37,2013-01-03 18:10:00,
2013-01-04 04:15:00,75.3,72.5,29.73,SW,235,0.0,4.0,91,0.00,RA,,0.12,WeatherDisplay:10.37,2013-01-03 18:15:00,
2013-01-04 04:20:00,75.3,72.5,29.73,WSW,255,2.0,5.0,91,0.01,RA,,0.13,WeatherDisplay:10.37,2013-01-03 18:20:00,
2013-01-04 04:25:00,75.3,72.5,29.73,West,260,0.0,5.0,91,0.01,RA,,0.13,WeatherDisplay:10.37,2013-01-03 18:25:00,
2013-01-04 04:30:00,75.3,72.8,29.74,WSW,247,0.0,5.0,92,0.00,RA,,0.13,WeatherDisplay:10.37,2013-01-03 18:30:00,
2013-01-04 04:35:00,75.1,72.6,29.74,WSW,256,0.0,5.0,92,0.00,RA,,0.13,WeatherDisplay:10.37,2013-01-03 18:35:00,
2013-01-04 04:40:00,74.9,72.1,29.73,WSW,258,1.0,5.0,91,0.00,RA,,0.13,WeatherDisplay:10.37,2013-01-03 18:40:00,
2013-01-04 04:45:00,74.8,72.3,29.73,WSW,258,1.0,5.0,92,0.00,RA,,0.13,WeatherDisplay:10.37,2013-01-03 18:45:00,
2013-01-04 04:55:00,74.6,71.8,29.73,WSW,243,1.0,4.0,91,0.00,RA,,0.13,WeatherDisplay:10.37,2013-01-03 18:55:00,
2013-01-04 05:00:00,74.6,71.8,29.74,WSW,241,0.0,4.0,91,0.00,RA,,0.13,WeatherDisplay:10.37,2013-01-03 19:00:00,
2013-01-04 05:10:00,74.5,72.0,29.75,WSW,255,1.0,4.0,92,0.00,RA,,0.13,WeatherDisplay:10.37,2013-01-03 19:10:00,
2013-01-04 05:15:00,74.5,72.0,29.75,WSW,254,2.0,4.0,92,0.00,RA,,0.13,WeatherDisplay:10.37,2013-01-03 19:15:00,
2013-01-04 06:00:00,74.5,72.0,29.75,WSW,240,0.0,3.0,92,0.00,RA,,0.13,WeatherDisplay:10.37,2013-01-03 20:00:00,
2013-01-04 06:10:00,74.7,72.2,29.75,West,260,0.0,3.0,92,0.00,RA,,0.13,WeatherDisplay:10.37,2013-01-03 20:10:00,
2013-01-04 06:15:00,74.8,72.0,29.76,West,260,0.0,1.0,91,0.00,RA,,0.13,WeatherDisplay:10.37,2013-01-03 20:15:00,
2013-01-04 06:20:00,74.9,72.1,29.76,WSW,243,0.0,3.0,91,0.00,RA,,0.13,WeatherDisplay:10.37,2013-01-03 20:20:00,
2013-01-04 06:25:00,75.0,72.5,29.76,SW,227,0.0,2.0,92,0.00,RA,,0.13,WeatherDisplay:10.37,2013-01-03 20:25:00,
2013-01-04 06:30:00,75.1,72.6,29.76,SW,232,0.0,3.0,92,0.00,RA,,0.13,WeatherDisplay:10.37,2013-01-03 20:30:00,
2013-01-04 06:35:00,75.2,72.7,29.77,WSW,246,1.0,3.0,92,0.00,RA,,0.13,WeatherDisplay:10.37,2013-01-03 20:35:00,
2013-01-04 06:40:00,75.3,72.8,29.77,WSW,254,0.0,2.0,92,0.00,RA,,0.13,WeatherDisplay:10.37,2013-01-03 20:40:00,
2013-01-04 06:45:00,75.4,72.6,29.77,WSW,254,0.0,1.0,91,0.00,RA,,0.13,WeatherDisplay:10.37,2013-01-03 20:45:00,
2013-01-04 06:50:00,75.6,73.1,29.77,WSW,253,0.0,4.0,92,0.00,RA,,0.13,WeatherDisplay:10.37,2013-01-03 20:50:00,
2013-01-04 06:55:00,75.8,73.3,29.77,SW,231,0.0,3.0,92,0.00,RA,,0.13,WeatherDisplay:10.37,2013-01-03 20:55:00,
2013-01-04 07:00:00,76.0,73.2,29.78,SW,220,0.0,2.0,91,0.00,RA,,0.13,WeatherDisplay:10.37,2013-01-03 21:00:00,
2013-01-04 07:05:00,76.2,73.4,29.78,SW,233,1.0,4.0,91,0.00,RA,,0.13,WeatherDisplay:10.37,2013-01-03 21:05:00,
2013-01-04 07:15:00,76.6,73.8,29.78,SW,216,0.0,2.0,91,0.00,RA,,0.13,WeatherDisplay:10.37,2013-01-03 21:15:00,
2013-01-04 07:20:00,76.9,74.1,29.79,SW,215,0.0,2.0,91,0.00,RA,,0.13,WeatherDisplay:10.37,2013-01-03 21:20:00,
2013-01-04 07:25:00,77.3,74.5,29.79,WSW,248,0.0,4.0,91,0.00,RA,,0.13,WeatherDisplay:10.37,2013-01-03 21:25:00,
2013-01-04 07:30:00,77.8,74.6,29.79,WSW,239,0.0,4.0,90,0.00,RA,,0.13,WeatherDisplay:10.37,2013-01-03 21:30:00,
2013-01-04 07:35:00,78.2,74.7,29.79,WSW,249,1.0,4.0,89,0.00,RA,,0.13,WeatherDisplay:10.37,2013-01-03 21:35:00,
2013-01-04 07:40:00,78.5,75.0,29.79,West,260,1.0,3.0,89,0.00,RA,,0.13,WeatherDisplay:10.37,2013-01-03 21:40:00,
2013-01-04 07:45:00,78.9,75.1,29.79,West,259,0.0,5.0,88,0.00,RA,,0.13,WeatherDisplay:10.37,2013-01-03 21:45:00,
2013-01-04 07:50:00,79.4,75.5,29.79,WSW,258,1.0,3.0,88,0.00,RA,,0.13,WeatherDisplay:10.37,2013-01-03 21:50:00,
2013-01-04 07:55:00,79.8,75.6,29.79,WSW,255,1.0,5.0,87,0.00,RA,,0.13,WeatherDisplay:10.37,2013-01-03 21:55:00,
2013-01-04 08:00:00,80.3,75.7,29.80,West,267,1.0,5.0,86,0.01,RA,,0.14,WeatherDisplay:10.37,2013-01-03 22:00:00,
2013-01-04 08:10:00,81.1,75.8,29.80,West,265,2.0,4.0,84,0.00,RA,,0.14,WeatherDisplay:10.37,2013-01-03 22:10:00,
2013-01-04 08:15:00,81.4,76.1,29.80,SW,218,1.0,6.0,84,0.00,RA,,0.14,WeatherDisplay:10.37,2013-01-03 22:15:00,
2013-01-04 08:20:00,81.9,76.6,29.80,SSW,209,0.0,3.0,84,0.00,RA,,0.14,WeatherDisplay:10.37,2013-01-03 22:20:00,
2013-01-04 08:25:00,82.4,77.0,29.80,SW,214,0.0,4.0,84,0.00,RA,,0.14,WeatherDisplay:10.37,2013-01-03 22:25:00,
2013-01-04 08:30:00,82.8,77.5,29.80,SW,222,0.0,4.0,84,0.00,RA,,0.14,WeatherDisplay:10.37,2013-01-03 22:30:00,
2013-01-04 08:40:00,83.8,77.7,29.80,WSW,246,1.0,4.0,82,0.00,RA,,0.14,WeatherDisplay:10.37,2013-01-03 22:40:00,
2013-01-04 08:45:00,84.1,77.3,29.80,WSW,238,2.0,5.0,80,0.00,RA,,0.14,WeatherDisplay:10.37,2013-01-03 22:45:00,
2013-01-04 08:50:00,84.4,77.1,29.80,South,187,0.0,5.0,79,0.00,RA,,0.14,WeatherDisplay:10.37,2013-01-03 22:50:00,
2013-01-04 08:55:00,84.8,77.2,29.80,South,186,2.0,4.0,78,0.00,RA,,0.14,WeatherDisplay:10.37,2013-01-03 22:55:00,
2013-01-04 09:00:00,85.3,77.6,29.80,WSW,255,2.0,5.0,78,0.00,RA,,0.14,WeatherDisplay:10.37,2013-01-03 23:00:00,
2013-01-04 09:10:00,85.6,77.9,29.80,SSW,207,1.0,6.0,78,0.00,RA,,0.14,WeatherDisplay:10.37,2013-01-03 23:10:00,
2013-01-04 09:15:00,85.7,77.7,29.80,South,172,0.0,5.0,77,0.00,RA,,0.14,WeatherDisplay:10.37,2013-01-03 23:15:00,
2013-01-04 09:20:00,86.1,77.6,29.81,SSE,160,1.0,4.0,76,0.00,RA,,0.14,WeatherDisplay:10.37,2013-01-03 23:20:00,
2013-01-04 09:25:00,86.3,77.8,29.81,South,177,1.0,5.0,76,0.00,RA,,0.14,WeatherDisplay:10.37,2013-01-03 23:25:00,
2013-01-04 09:30:00,86.6,78.5,29.81,SE,134,1.0,4.0,77,0.00,RA,,0.14,WeatherDisplay:10.37,2013-01-03 23:30:00,
2013-01-04 09:35:00,86.8,78.0,29.81,SE,133,1.0,5.0,75,0.00,RA,,0.14,WeatherDisplay:10.37,2013-01-03 23:35:00,
2013-01-04 09:40:00,87.3,77.5,29.81,SSE,158,2.0,6.0,73,0.00,RA,,0.14,WeatherDisplay:10.37,2013-01-03 23:40:00,
2013-01-04 09:45:00,87.8,78.1,29.80,South,184,2.0,5.0,73,0.00,RA,,0.14,WeatherDisplay:10.37,2013-01-03 23:45:00,
2013-01-04 09:50:00,88.0,77.8,29.80,SSE,149,2.0,7.0,72,0.00,RA,,0.14,WeatherDisplay:10.37,2013-01-03 23:50:00,
2013-01-04 09:55:00,88.0,77.0,29.80,SSE,153,2.0,6.0,70,0.00,RA,,0.14,WeatherDisplay:10.37,2013-01-03 23:55:00,
2013-01-04 10:00:00,87.8,77.6,29.80,SE,133,1.0,5.0,72,0.00,RA,,0.14,WeatherDisplay:10.37,2013-01-04 00:00:00,
2013-01-04 10:10:00,88.4,77.4,29.80,SE,127,1.0,7.0,70,0.00,RA,,0.14,WeatherDisplay:10.37,2013-01-04 00:10:00,
2013-01-04 10:15:00,88.7,77.2,29.80,SSE,153,1.0,3.0,69,0.00,RA,,0.14,WeatherDisplay:10.37,2013-01-04 00:15:00,
2013-01-04 10:20:00,88.4,76.9,29.80,SW,214,1.0,5.0,69,0.00,RA,,0.14,WeatherDisplay:10.37,2013-01-04 00:20:00,
2013-01-04 10:25:00,88.3,77.3,29.80,SSE,159,1.0,6.0,70,0.00,RA,,0.14,WeatherDisplay:10.37,2013-01-04 00:25:00,
2013-01-04 10:30:00,88.4,76.9,29.80,ESE,111,1.0,4.0,69,0.00,RA,,0.14,WeatherDisplay:10.37,2013-01-04 00:30:00,
2013-01-04 10:35:00,88.8,77.8,29.80,ESE,110,1.0,4.0,70,0.00,RA,,0.14,WeatherDisplay:10.37,2013-01-04 00:35:00,
2013-01-04 10:40:00,89.1,77.6,29.80,ESE,122,2.0,6.0,69,0.00,RA,,0.14,WeatherDisplay:10.37,2013-01-04 00:40:00,
2013-01-04 10:45:00,88.9,76.5,29.80,ESE,122,0.0,4.0,67,0.00,RA,,0.14,WeatherDisplay:10.37,2013-01-04 00:45:00,
2013-01-04 10:50:00,89.1,77.1,29.80,ESE,120,1.0,7.0,68,0.00,RA,,0.14,WeatherDisplay:10.37,2013-01-04 00:50:00,
2013-01-04 10:55:00,89.2,77.7,29.80,ESE,104,2.0,12.0,69,0.00,RA,,0.14,WeatherDisplay:10.37,2013-01-04 00:55:00,
2013-01-04 11:00:00,89.4,78.3,29.80,SE,127,2.0,5.0,70,0.00,RA,,0.14,WeatherDisplay:10.37,2013-01-04 01:00:00,
2013-01-04 11:10:00,89.5,77.6,29.79,SE,139,2.0,4.0,68,0.00,RA,,0.14,WeatherDisplay:10.37,2013-01-04 01:10:00,
2013-01-04 11:15:00,89.4,77.9,29.79,South,180,1.0,4.0,69,0.00,RA,,0.14,WeatherDisplay:10.37,2013-01-04 01:15:00,
2013-01-04 11:25:00,89.2,77.2,29.79,SSE,151,0.0,4.0,68,0.00,RA,,0.14,WeatherDisplay:10.37,2013-01-04 01:25:00,
2013-01-04 11:30:00,89.4,78.3,29.78,South,177,1.0,3.0,70,0.00,RA,,0.14,WeatherDisplay:10.37,2013-01-04 01:30:00,
2013-01-04 11:35:00,89.7,77.7,29.78,SE,124,2.0,9.0,68,0.00,RA,,0.14,WeatherDisplay:10.37,2013-01-04 01:35:00,
2013-01-04 11:40:00,89.2,77.3,29.78,ESE,115,1.0,4.0,68,0.00,RA,,0.14,WeatherDisplay:10.37,2013-01-04 01:40:00,
2013-01-04 11:45:00,89.3,77.8,29.78,ESE,114,1.0,3.0,69,0.00,RA,,0.14,WeatherDisplay:10.37,2013-01-04 01:45:00,
2013-01-04 11:50:00,89.8,76.9,29.78,ESE,123,2.0,10.0,66,0.00,RA,,0.14,WeatherDisplay:10.37,2013-01-04 01:50:00,
2013-01-04 11:55:00,89.9,77.5,29.78,SSE,167,1.0,6.0,67,0.00,RA,,0.14,WeatherDisplay:10.37,2013-01-04 01:55:00,
2013-01-04 12:00:00,90.1,77.7,29.77,SE,144,2.0,6.0,67,0.00,RA,,0.14,WeatherDisplay:10.37,2013-01-04 02:00:00,
2013-01-04 12:10:00,89.5,78.0,29.77,SE,131,1.0,4.0,69,0.00,RA,,0.14,WeatherDisplay:10.37,2013-01-04 02:10:00,
2013-01-04 12:15:00,89.6,78.0,29.77,South,172,2.0,12.0,69,0.00,RA,,0.14,WeatherDisplay:10.37,2013-01-04 02:15:00,
2013-01-04 12:20:00,89.7,77.7,29.77,South,178,2.0,6.0,68,0.00,RA,,0.14,WeatherDisplay:10.37,2013-01-04 02:20:00,
2013-01-04 12:25:00,89.7,78.2,29.78,ESE,106,1.0,4.0,69,0.00,RA,,0.14,WeatherDisplay:10.37,2013-01-04 02:25:00,
2013-01-04 12:30:00,89.7,78.2,29.78,ESE,123,1.0,6.0,69,0.00,RA,,0.14,WeatherDisplay:10.37,2013-01-04 02:30:00,
2013-01-04 12:35:00,89.5,78.4,29.77,SE,127,0.0,5.0,70,0.00,RA,,0.14,WeatherDisplay:10.37,2013-01-04 02:35:00,
2013-01-04 12:40:00,89.0,78.4,29.77,SSE,157,2.0,6.0,71,0.00,RA,,0.14,WeatherDisplay:10.37,2013-01-04 02:40:00,
2013-01-04 12:45:00,88.9,77.4,29.77,SW,218,2.0,12.0,69,0.00,RA,,0.14,WeatherDisplay:10.37,2013-01-04 02:45:00,
2013-01-04 12:55:00,88.4,77.8,29.76,SSE,164,1.0,4.0,71,0.00,RA,,0.14,WeatherDisplay:10.37,2013-01-04 02:55:00,
2013-01-04 13:00:00,89.0,77.9,29.76,ESE,107,1.0,6.0,70,0.00,RA,,0.14,WeatherDisplay:10.37,2013-01-04 03:00:00,
2013-01-04 13:10:00,89.3,77.8,29.76,ESE,119,1.0,4.0,69,0.00,RA,,0.14,WeatherDisplay:10.37,2013-01-04 03:10:00,
2013-01-04 13:15:00,89.0,77.5,29.76,ESE,113,0.0,3.0,69,0.00,RA,,0.14,WeatherDisplay:10.37,2013-01-04 03:15:00,
2013-01-04 13:20:00,89.2,77.3,29.76,East,90,1.0,5.0,68,0.00,RA,,0.14,WeatherDisplay:10.37,2013-01-04 03:20:00,
2013-01-04 13:25:00,89.1,77.6,29.75,ENE,72,2.0,4.0,69,0.00,RA,,0.14,WeatherDisplay:10.37,2013-01-04 03:25:00,
2013-01-04 13:30:00,89.4,77.4,29.75,SE,130,1.0,10.0,68,0.00,RA,,0.14,WeatherDisplay:10.37,2013-01-04 03:30:00,
2013-01-04 13:35:00,89.4,77.0,29.75,SE,125,1.0,5.0,67,0.00,RA,,0.14,WeatherDisplay:10.37,2013-01-04 03:35:00,
2013-01-04 13:40:00,89.2,76.4,29.75,ESE,117,1.0,4.0,66,0.00,RA,,0.14,WeatherDisplay:10.37,2013-01-04 03:40:00,
2013-01-04 13:45:00,88.8,76.9,29.75,SE,127,0.0,5.0,68,0.00,RA,,0.14,WeatherDisplay:10.37,2013-01-04 03:45:00,
2013-01-04 13:50:00,88.4,76.5,29.75,SSE,159,0.0,10.0,68,0.00,RA,,0.14,WeatherDisplay:10.37,2013-01-04 03:50:00,
2013-01-04 13:55:00,87.9,75.6,29.74,SSE,164,1.0,10.0,67,0.00,RA,,0.14,WeatherDisplay:10.37,2013-01-04 03:55:00,
2013-01-04 14:00:00,87.9,76.5,29.74,SSE,168,2.0,9.0,69,0.00,RA,,0.14,WeatherDisplay:10.37,2013-01-04 04:00:00,
2013-01-04 14:10:00,87.9,76.9,29.74,SE,124,0.0,3.0,70,0.00,RA,,0.14,WeatherDisplay:10.37,2013-01-04 04:10:00,
2013-01-04 14:15:00,88.4,76.5,29.74,East,100,0.0,5.0,68,0.00,RA,,0.14,WeatherDisplay:10.37,2013-01-04 04:15:00,
2013-01-04 14:20:00,88.1,75.7,29.74,ESE,111,1.0,5.0,67,0.00,RA,,0.14,WeatherDisplay:10.37,2013-01-04 04:20:00,
2013-01-04 14:25:00,87.7,75.8,29.74,East,95,1.0,4.0,68,0.00,RA,,0.14,WeatherDisplay:10.37,2013-01-04 04:25:00,
2013-01-04 14:30:00,87.7,76.7,29.74,East,91,1.0,9.0,70,0.00,RA,,0.14,WeatherDisplay:10.37,2013-01-04 04:30:00,
2013-01-04 14:35:00,87.7,76.7,29.74,East,91,1.0,6.0,70,0.00,RA,,0.14,WeatherDisplay:10.37,2013-01-04 04:35:00,
2013-01-04 14:40:00,87.8,76.4,29.74,ESE,112,1.0,4.0,69,0.00,RA,,0.14,WeatherDisplay:10.37,2013-01-04 04:40:00,
2013-01-04 14:45:00,88.0,77.0,29.74,ESE,113,1.0,4.0,70,0.00,RA,,0.14,WeatherDisplay:10.37,2013-01-04 04:45:00,
2013-01-04 14:50:00,88.1,76.7,29.74,East,97,0.0,4.0,69,0.00,RA,,0.14,WeatherDisplay:10.37,2013-01-04 04:50:00,
2013-01-04 14:55:00,88.0,78.7,29.74,SE,125,1.0,7.0,74,0.02,RA,,0.17,WeatherDisplay:10.37,2013-01-04 04:55:00,
2013-01-04 15:00:00,87.0,77.7,29.74,South,190,1.0,5.0,74,0.00,RA,,0.17,WeatherDisplay:10.37,2013-01-04 05:00:00,
2013-01-04 15:05:00,86.2,77.3,29.73,SSW,209,1.0,5.0,75,0.00,RA,,0.17,WeatherDisplay:10.37,2013-01-04 05:05:00,
2013-01-04 15:10:00,85.8,76.5,29.73,SSW,212,1.0,3.0,74,0.00,RA,,0.17,WeatherDisplay:10.37,2013-01-04 05:10:00,
2013-01-04 15:15:00,85.2,76.8,29.74,SSW,204,0.0,4.0,76,0.02,RA,,0.19,WeatherDisplay:10.37,2013-01-04 05:15:00,
2013-01-04 15:20:00,84.7,77.1,29.73,SSW,206,0.0,2.0,78,0.00,RA,,0.19,WeatherDisplay:10.37,2013-01-04 05:20:00,
2013-01-04 15:25:00,84.4,77.2,29.73,SSW,204,1.0,3.0,79,0.00,RA,,0.19,WeatherDisplay:10.37,2013-01-04 05:25:00,
2013-01-04 15:30:00,84.7,76.3,29.73,South,176,0.0,4.0,76,0.00,RA,,0.19,WeatherDisplay:10.37,2013-01-04 05:30:00,
2013-01-04 15:40:00,85.7,76.9,29.73,NNW,343,0.0,2.0,75,0.00,RA,,0.19,WeatherDisplay:10.37,2013-01-04 05:40:00,
2013-01-04 15:45:00,85.9,76.6,29.73,ENE,61,0.0,4.0,74,0.00,RA,,0.19,WeatherDisplay:10.37,2013-01-04 05:45:00,
2013-01-04 15:50:00,85.8,76.5,29.73,SE,143,2.0,7.0,74,0.00,RA,,0.19,WeatherDisplay:10.37,2013-01-04 05:50:00,
2013-01-04 15:55:00,85.4,76.2,29.73,SSW,199,0.0,7.0,74,0.00,RA,,0.19,WeatherDisplay:10.37,2013-01-04 05:55:00,
2013-01-04 16:00:00,85.1,75.9,29.73,South,185,1.0,5.0,74,0.00,RA,,0.19,WeatherDisplay:10.37,2013-01-04 06:00:00,
2013-01-04 16:10:00,84.7,76.3,29.73,South,184,0.0,7.0,76,0.00,RA,,0.19,WeatherDisplay:10.37,2013-01-04 06:10:00,
2013-01-04 16:15:00,85.0,77.0,29.73,South,190,1.0,5.0,77,0.00,RA,,0.19,WeatherDisplay:10.37,2013-01-04 06:15:00,
2013-01-04 16:20:00,85.7,76.8,29.73,SSW,194,1.0,5.0,75,0.00,RA,,0.19,WeatherDisplay:10.37,2013-01-04 06:20:00,
2013-01-04 16:25:00,86.0,76.7,29.73,SSW,201,0.0,3.0,74,0.00,RA,,0.19,WeatherDisplay:10.37,2013-01-04 06:25:00,
2013-01-04 16:35:00,85.9,76.2,29.73,SSW,208,1.0,3.0,73,0.00,RA,,0.19,WeatherDisplay:10.37,2013-01-04 06:35:00,
2013-01-04 16:40:00,85.7,76.8,29.72,WSW,242,0.0,3.0,75,0.00,RA,,0.19,WeatherDisplay:10.37,2013-01-04 06:40:00,
2013-01-04 16:45:00,85.7,76.8,29.73,SSW,213,2.0,5.0,75,0.00,RA,,0.19,WeatherDisplay:10.37,2013-01-04 06:45:00,
2013-01-04 16:50:00,86.0,76.7,29.73,South,186,1.0,5.0,74,0.00,RA,,0.19,WeatherDisplay:10.37,2013-01-04 06:50:00,
2013-01-04 16:55:00,85.9,77.1,29.73,SSW,210,0.0,4.0,75,0.00,RA,,0.19,WeatherDisplay:10.37,2013-01-04 06:55:00,
2013-01-04 17:00:00,85.7,76.8,29.73,SW,227,0.0,3.0,75,0.00,RA,,0.19,WeatherDisplay:10.37,2013-01-04 07:00:00,
2013-01-04 17:10:00,85.3,76.9,29.73,WSW,240,0.0,3.0,76,0.00,RA,,0.19,WeatherDisplay:10.37,2013-01-04 07:10:00,
2013-01-04 17:15:00,85.1,76.7,29.74,West,268,0.0,3.0,76,0.00,RA,,0.19,WeatherDisplay:10.37,2013-01-04 07:15:00,
2013-01-04 17:20:00,84.4,76.4,29.74,SW,214,1.0,6.0,77,0.00,RA,,0.19,WeatherDisplay:10.37,2013-01-04 07:20:00,
2013-01-04 17:25:00,83.9,76.3,29.74,SSW,203,1.0,6.0,78,0.00,RA,,0.19,WeatherDisplay:10.37,2013-01-04 07:25:00,
2013-01-04 17:35:00,82.5,76.1,29.74,SW,222,1.0,4.0,81,0.00,RA,,0.19,WeatherDisplay:10.37,2013-01-04 07:35:00,
2013-01-04 17:40:00,81.9,75.8,29.74,SW,227,0.0,2.0,82,0.00,RA,,0.19,WeatherDisplay:10.37,2013-01-04 07:40:00,
2013-01-04 17:45:00,81.5,75.8,29.75,WSW,256,0.0,3.0,83,0.00,RA,,0.19,WeatherDisplay:10.37,2013-01-04 07:45:00,
2013-01-04 17:50:00,81.2,75.9,29.75,West,259,0.0,3.0,84,0.00,RA,,0.19,WeatherDisplay:10.37,2013-01-04 07:50:00,
2013-01-04 17:55:00,80.8,75.6,29.75,West,260,0.0,3.0,84,0.00,RA,,0.19,WeatherDisplay:10.37,2013-01-04 07:55:00,
2013-01-04 18:00:00,80.6,75.3,29.75,WSW,255,0.0,2.0,84,0.00,RA,,0.19,WeatherDisplay:10.37,2013-01-04 08:00:00,
2013-01-04 18:10:00,80.3,75.0,29.75,WSW,237,0.0,2.0,84,0.00,RA,,0.19,WeatherDisplay:10.37,2013-01-04 08:10:00,
2013-01-04 18:20:00,80.3,75.0,29.75,SW,226,2.0,6.0,84,0.00,RA,,0.19,WeatherDisplay:10.37,2013-01-04 08:20:00,
2013-01-04 18:25:00,80.3,75.4,29.75,SW,218,1.0,4.0,85,0.00,RA,,0.19,WeatherDisplay:10.37,2013-01-04 08:25:00,
2013-01-04 18:30:00,80.1,75.6,29.75,SW,221,0.0,4.0,86,0.00,RA,,0.19,WeatherDisplay:10.37,2013-01-04 08:30:00,
2013-01-04 18:35:00,80.0,75.4,29.75,SW,229,0.0,2.0,86,0.00,RA,,0.19,WeatherDisplay:10.37,2013-01-04 08:35:00,
2013-01-04 18:40:00,79.8,75.6,29.76,SW,232,0.0,3.0,87,0.00,RA,,0.19,WeatherDisplay:10.37,2013-01-04 08:40:00,
2013-01-04 18:45:00,79.7,75.5,29.76,WSW,240,0.0,2.0,87,0.00,RA,,0.19,WeatherDisplay:10.37,2013-01-04 08:45:00,
2013-01-04 18:50:00,79.5,75.3,29.76,SSW,206,0.0,4.0,87,0.00,RA,,0.19,WeatherDisplay:10.37,2013-01-04 08:50:00,
2013-01-04 18:55:00,79.4,74.8,29.76,SSW,206,0.0,4.0,86,0.00,RA,,0.19,WeatherDisplay:10.37,2013-01-04 08:55:00,
2013-01-04 19:00:00,79.3,74.7,29.76,SW,221,0.0,5.0,86,0.00,RA,,0.19,WeatherDisplay:10.37,2013-01-04 09:00:00,
2013-01-04 19:10:00,79.2,74.3,29.76,SSW,193,0.0,5.0,85,0.00,RA,,0.19,WeatherDisplay:10.37,2013-01-04 09:10:00,
2013-01-04 19:15:00,79.2,74.0,29.76,SW,227,1.0,6.0,84,0.00,RA,,0.19,WeatherDisplay:10.37,2013-01-04 09:15:00,
2013-01-04 19:20:00,79.3,74.0,29.76,SSW,206,0.0,1.0,84,0.00,RA,,0.19,WeatherDisplay:10.37,2013-01-04 09:20:00,
2013-01-04 19:30:00,79.5,74.2,29.77,SW,225,0.0,2.0,84,0.00,RA,,0.19,WeatherDisplay:10.37,2013-01-04 09:30:00,
2013-01-04 19:35:00,79.6,74.3,29.77,SSW,208,1.0,5.0,84,0.00,RA,,0.19,WeatherDisplay:10.37,2013-01-04 09:35:00,
2013-01-04 19:40:00,79.6,74.3,29.77,WSW,248,0.0,7.0,84,0.00,RA,,0.19,WeatherDisplay:10.37,2013-01-04 09:40:00,
2013-01-04 19:50:00,79.6,74.3,29.78,East,96,0.0,2.0,84,0.00,RA,,0.19,WeatherDisplay:10.37,2013-01-04 09:50:00,
2013-01-04 20:00:00,79.6,74.3,29.78,WSW,241,0.0,1.0,84,0.00,RA,,0.19,WeatherDisplay:10.37,2013-01-04 10:00:00,
2013-01-04 20:05:00,79.5,74.6,29.78,WSW,244,0.0,3.0,85,0.00,RA,,0.19,WeatherDisplay:10.37,2013-01-04 10:05:00,
2013-01-04 20:15:00,79.3,74.4,29.78,West,259,0.0,3.0,85,0.00,RA,,0.19,WeatherDisplay:10.37,2013-01-04 10:15:00,
2013-01-04 20:25:00,78.8,74.3,29.78,West,260,0.0,4.0,86,0.00,RA,,0.19,WeatherDisplay:10.37,2013-01-04 10:25:00,
2013-01-04 20:30:00,78.7,74.2,29.77,West,263,0.0,5.0,86,0.00,RA,,0.19,WeatherDisplay:10.37,2013-01-04 10:30:00,
2013-01-04 20:35:00,78.6,74.1,29.78,West,264,1.0,4.0,86,0.00,RA,,0.19,WeatherDisplay:10.37,2013-01-04 10:35:00,
2013-01-04 20:40:00,78.5,74.0,29.78,WSW,258,0.0,4.0,86,0.00,RA,,0.19,WeatherDisplay:10.37,2013-01-04 10:40:00,
2013-01-04 20:45:00,78.5,74.3,29.78,WSW,252,1.0,5.0,87,0.00,RA,,0.19,WeatherDisplay:10.37,2013-01-04 10:45:00,
2013-01-04 20:55:00,78.2,73.7,29.78,WSW,251,2.0,6.0,86,0.01,RA,,0.20,WeatherDisplay:10.37,2013-01-04 10:55:00,
2013-01-04 21:00:00,78.2,74.0,29.78,SW,229,0.0,4.0,87,0.00,RA,,0.20,WeatherDisplay:10.37,2013-01-04 11:00:00,
2013-01-04 21:05:00,78.1,73.9,29.79,WSW,245,0.0,3.0,87,0.01,RA,,0.20,WeatherDisplay:10.37,2013-01-04 11:05:00,
2013-01-04 21:10:00,77.9,74.1,29.79,West,269,0.0,2.0,88,0.00,RA,,0.20,WeatherDisplay:10.37,2013-01-04 11:10:00,
2013-01-04 21:15:00,77.6,73.8,29.79,West,271,0.0,2.0,88,0.00,RA,,0.20,WeatherDisplay:10.37,2013-01-04 11:15:00,
2013-01-04 21:20:00,77.4,73.9,29.79,West,271,0.0,2.0,89,0.00,RA,,0.20,WeatherDisplay:10.37,2013-01-04 11:20:00,
2013-01-04 21:25:00,77.3,73.8,29.79,West,268,0.0,3.0,89,0.00,RA,,0.20,WeatherDisplay:10.37,2013-01-04 11:25:00,
2013-01-04 21:30:00,77.2,73.7,29.79,West,263,0.0,4.0,89,0.00,RA,,0.20,WeatherDisplay:10.37,2013-01-04 11:30:00,
2013-01-04 21:35:00,77.0,73.5,29.79,WSW,244,0.0,2.0,89,0.00,RA,,0.20,WeatherDisplay:10.37,2013-01-04 11:35:00,
2013-01-04 21:40:00,76.9,73.4,29.79,SW,229,1.0,5.0,89,0.00,RA,,0.20,WeatherDisplay:10.37,2013-01-04 11:40:00,
2013-01-04 21:50:00,76.8,73.6,29.79,WSW,243,0.0,2.0,90,0.00,RA,,0.20,WeatherDisplay:10.37,2013-01-04 11:50:00,
2013-01-04 21:55:00,76.8,73.6,29.79,West,271,0.0,3.0,90,0.00,RA,,0.20,WeatherDisplay:10.37,2013-01-04 11:55:00,
2013-01-04 22:00:00,76.8,73.6,29.79,West,277,0.0,3.0,90,0.00,RA,,0.20,WeatherDisplay:10.37,2013-01-04 12:00:00,
2013-01-04 22:10:00,76.7,73.5,29.79,WSW,248,0.0,2.0,90,0.00,RA,,0.20,WeatherDisplay:10.37,2013-01-04 12:10:00,
2013-01-04 22:15:00,76.7,73.5,29.79,WSW,248,0.0,1.0,90,0.00,RA,,0.20,WeatherDisplay:10.37,2013-01-04 12:15:00,
2013-01-04 22:20:00,76.6,73.5,29.80,WSW,248,0.0,2.0,90,0.00,RA,,0.20,WeatherDisplay:10.37,2013-01-04 12:20:00,
2013-01-04 22:25:00,76.5,73.4,29.80,WSW,252,0.0,3.0,90,0.00,RA,,0.20,WeatherDisplay:10.37,2013-01-04 12:25:00,
2013-01-04 22:30:00,76.4,73.2,29.80,WSW,251,0.0,2.0,90,0.00,RA,,0.20,WeatherDisplay:10.37,2013-01-04 12:30:00,
2013-01-04 22:35:00,76.4,73.2,29.80,WSW,246,0.0,1.0,90,0.00,RA,,0.20,WeatherDisplay:10.37,2013-01-04 12:35:00,
2013-01-04 22:40:00,76.3,73.1,29.80,WSW,245,0.0,1.0,90,0.00,RA,,0.20,WeatherDisplay:10.37,2013-01-04 12:40:00,
2013-01-04 22:45:00,76.3,73.1,29.80,WSW,244,0.0,1.0,90,0.00,RA,,0.20,WeatherDisplay:10.37,2013-01-04 12:45:00,
2013-01-04 22:50:00,76.2,73.1,29.80,WSW,241,0.0,1.0,90,0.00,RA,,0.20,WeatherDisplay:10.37,2013-01-04 12:50:00,
2013-01-04 22:55:00,76.2,73.1,29.79,WSW,240,0.0,2.0,90,0.00,RA,,0.20,WeatherDisplay:10.37,2013-01-04 12:55:00,
2013-01-04 23:00:00,76.2,72.7,29.79,SW,223,0.0,2.0,89,0.00,RA,,0.20,WeatherDisplay:10.37,2013-01-04 13:00:00,
2013-01-04 23:05:00,76.1,72.6,29.79,SW,226,0.0,2.0,89,0.00,RA,,0.20,WeatherDisplay:10.37,2013-01-04 13:05:00,
2013-01-04 23:10:00,76.0,72.6,29.79,WSW,241,0.0,3.0,89,0.00,RA,,0.20,WeatherDisplay:10.37,2013-01-04 13:10:00,
2013-01-04 23:15:00,76.0,72.5,29.79,WSW,241,0.0,1.0,89,0.00,RA,,0.20,WeatherDisplay:10.37,2013-01-04 13:15:00,
2013-01-04 23:20:00,75.9,72.4,29.79,WSW,241,0.0,1.0,89,0.00,RA,,0.20,WeatherDisplay:10.37,2013-01-04 13:20:00,
2013-01-04 23:25:00,75.9,72.4,29.79,WSW,246,1.0,4.0,89,0.00,RA,,0.20,WeatherDisplay:10.37,2013-01-04 13:25:00,
2013-01-04 23:30:00,75.8,72.3,29.79,West,259,0.0,1.0,89,0.00,RA,,0.20,WeatherDisplay:10.37,2013-01-04 13:30:00,
2013-01-04 23:35:00,75.8,72.3,29.79,West,265,0.0,1.0,89,0.00,RA,,0.20,WeatherDisplay:10.37,2013-01-04 13:35:00,
2013-01-04 23:40:00,75.8,72.3,29.79,West,265,0.0,2.0,89,0.00,RA,,0.20,WeatherDisplay:10.37,2013-01-04 13:40:00,
2013-01-04 23:45:00,75.7,72.3,29.79,West,266,0.0,2.0,89,0.00,RA,,0.20,WeatherDisplay:10.37,2013-01-04 13:45:00,
2013-01-04 23:50:00,75.7,72.2,29.79,West,266,0.0,2.0,89,0.00,RA,,0.20,WeatherDisplay:10.37,2013-01-04 13:50:00,
2013-01-04 23:55:00,75.6,72.1,29.78,West,266,1.0,3.0,89,0.00,RA,,0.20,WeatherDisplay:10.37,2013-01-04 13:55:00,